Location: Antioch
(38.0049°N, 121.8058°W)
Time: 02:48:27
(UTC+00:00)

Cosmos 2208 Rocket - Pass Details

Date: 18 May 2026
Orbit: 751 x 800 km, 74.0° (Epoch: 9 June)

Event Time Altitude Azimuth Distance (km) Brightness Sun altitude
Exits shadow 10:19:22 27° 289° (WNW) 1,451 5.2 -24.2°
Maximum altitude 10:19:47 28° 297° (WNW) 1,440 5.3 -24.1°
Drops below altitude 10° 10:24:15 10° 355° (N) 2,315 7.1 -23.6°
Sets 10:26:58 0° 7° (N) 3,237 8.2 -23.3°
